Tracking 31027 objects as of 19-Jul-2025
HD Live streaming from Space Station
objects crossing your sky now

METEOR 2-11 DEB

Track METEOR 2-11 DEB now!
10-day predictions


NORAD ID: 40704
Int'l Code: 1984-072F
Perigee: 890.2 km
Apogee: 928.4 km
Inclination: 82.5 °
Period: 103.0 minutes
Semi major axis: 7280 km
RCS: Unknown
Launch date: July 5, 1984
Source: Commonwealth of Independent States (former USSR) (CIS)
Launch site: PLESETSK MISSILE AND SPACE COMPLEX (PKMTR)

Note: This is SATELLITE DEBRIS
Your satellite tracking list
Your tracking list is empty




NASA's NSSDC Master Catalog

Two Line Element Set (TLE):
1 40704U 84072F   25176.06646832  .00001267  00000-0  88660-3 0  9999
2 40704  82.5188 297.1448 0026246 270.0487  89.7673 13.97580565517475
Source of the keplerian elements: AFSPC